Theta_e
286 285 285 285 285 285 285 286 287 289 291 293 297 299 299 302 314 317 331 329 326 323 323 320 317 316 315 314 314 313 313 307 313 309 304 306 308 309 310 310 310 310 311
286 285 285 285 285 285 285 285 286 288 289 291 294 296 299 300 302 306 326 328 325 322 322 320 317 315 313 311 313 313 306 306 311 307 304 300 301 307 308 309 309 309 308
285 285 285 284 284 284 284 285 285 286 288 289 291 295 297 299 300 307 316 325 323 321 322 320 317 315 313 311 311 313 310 307 307 308 305 301 305 294 298 304 306 306 307
285 285 285 284 284 284 284 284 285 286 288 289 292 296 298 299 299 301 314 323 322 320 321 319 316 314 312 311 310 310 311 309 306 306 307 301 299 297 297 294 298 300 301
285 285 284 284 284 284 284 284 284 285 287 288 291 293 298 299 299 301 308 323 320 320 319 319 315 314 312 310 311 309 309 309 308 307 300 295 297 294 295 296 293 294 294
285 285 284 284 284 284 284 284 285 285 287 289 290 293 297 299 298 301 307 321 320 319 318 317 315 313 312 310 310 310 310 308 308 305 303 297 297 294 294 294 293 295 293
285 285 284 284 284 284 284 285 285 286 287 288 290 292 297 298 298 300 305 320 319 318 317 316 314 312 312 311 310 310 309 309 307 308 302 298 297 296 295 295 293 293 292
284 284 284 284 283 284 284 284 285 285 286 288 290 292 297 298 298 300 304 314 319 317 316 315 314 313 311 311 310 311 308 309 308 308 301 299 297 297 297 295 293 294 292
284 284 284 283 283 284 284 284 285 286 287 289 290 292 297 299 300 301 304 314 318 317 316 316 313 312 312 311 310 310 308 308 309 308 302 299 297 297 297 297 295 296 296
283 283 283 283 284 284 284 284 285 286 287 289 291 292 298 299 302 302 302 312 318 316 315 314 312 311 311 310 310 309 307 307 307 308 304 299 298 297 297 297 296 297 296
283 283 283 284 283 283 284 284 285 287 288 290 292 293 299 300 305 302 302 314 317 315 315 314 311 310 310 310 310 308 307 306 305 307 305 299 298 298 297 297 296 296 298
282 282 284 283 283 284 284 285 287 289 290 292 293 294 298 301 304 303 303 319 316 314 314 313 311 310 310 310 310 308 307 306 305 307 305 301 298 298 298 297 296 296 298
282 283 283 283 283 283 284 286 288 291 292 293 293 295 299 304 303 306 309 319 316 314 313 312 310 310 309 310 309 310 309 308 308 309 307 304 301 299 299 297 296 296 297
282 282 283 283 283 283 285 287 289 292 294 294 295 297 300 304 304 308 318 318 315 314 313 312 310 310 309 309 309 309 308 307 307 308 308 306 304 303 301 299 297 296 297
282 282 282 282 283 284 285 288 292 294 295 295 296 299 302 303 309 315 321 318 316 314 313 311 310 310 309 308 307 308 308 307 304 305 306 307 307 307 304 300 298 296 297
281 282 282 282 283 284 285 287 291 297 296 296 298 302 306 307 316 321 319 317 315 314 313 311 310 309 308 308 310 308 306 307 306 306 306 308 308 305 301 300 300 298 298
281 281 281 282 283 284 285 287 292 298 297 297 302 305 307 315 321 319 318 316 314 313 311 310 309 308 309 308 309 308 306 307 307 308 308 307 305 301 300 300 298 297 299
281 281 281 282 283 284 286 291 295 299 298 300 305 308 306 320 319 318 316 315 312 311 310 309 308 308 308 307 307 306 306 304 306 310 312 309 303 299 300 299 297 297 298
281 281 282 282 283 288 292 296 298 300 301 307 309 311 319 319 318 317 316 314 312 309 309 308 307 307 307 306 305 306 303 303 303 305 307 309 303 300 300 299 297 297 297
280 281 281 283 286 290 294 298 301 303 308 311 313 319 320 319 318 317 315 313 311 310 309 307 307 307 307 306 305 304 303 302 301 301 302 306 302 300 300 299 298 297 296
280 281 281 283 285 289 296 301 304 309 310 314 318 318 318 317 317 316 314 312 311 310 309 307 307 306 306 304 305 304 304 302 301 300 299 299 299 300 300 299 298 298 296
280 280 281 282 285 289 302 307 314 315 316 316 316 316 316 315 315 314 313 312 311 309 308 308 307 306 305 305 304 304 307 307 305 299 300 301 299 299 299 298 297 297 296
280 280 280 283 285 287 291 297 303 311 312 313 312 313 314 313 313 311 310 310 310 308 307 307 305 303 303 302 302 302 303 304 302 303 303 301 299 299 298 297 297 296 295
279 279 280 282 283 285 289 292 301 308 307 304 305 307 309 309 309 309 308 308 307 306 305 304 303 302 302 302 302 302 301 300 300 300 298 297 296 297 297 296 296 295 295
279 279 280 281 282 284 287 291 296 302 301 301 302 302 303 306 304 304 307 309 307 308 306 304 303 302 301 301 302 301 299 299 300 298 296 296 295 293 293 293 294 295 294
278 278 279 281 282 284 285 288 293 298 301 299 299 301 302 302 301 301 303 305 306 306 306 306 305 303 303 302 301 301 301 302 299 297 294 294 294 293 293 293 291 293 291
Wind_Speed
19 20 20 23 25 22 18 19 19 18 22 22 19 17 20 30 24 27 50 53 52 50 53 48 45 42 47 49 51 48 48 39 44 38 32 27 24 23 22 20 20 20 18
21 25 25 20 23 26 22 19 16 15 18 19 17 14 21 17 28 39 31 54 55 52 54 51 45 43 43 47 54 53 36 36 41 23 22 4 9 16 16 16 16 19 16
21 24 29 28 24 27 26 22 22 23 19 15 16 16 17 21 25 36 30 57 58 55 57 53 47 44 51 52 53 56 50 34 26 38 12 5 4 9 8 12 14 15 14
22 18 26 32 28 27 29 27 21 19 19 16 15 16 13 18 24 29 23 55 55 53 58 54 48 48 46 51 49 48 45 45 36 32 21 8 18 5 5 8 12 14 13
22 21 24 31 33 28 27 30 25 22 22 18 16 21 22 11 25 32 41 51 50 53 55 57 48 48 47 49 52 44 41 43 43 35 25 15 22 14 6 6 9 11 12
24 23 29 31 32 30 27 28 28 23 24 23 21 22 21 11 15 24 29 46 47 48 53 55 53 50 46 48 52 49 50 43 35 37 31 26 16 12 9 6 9 12 11
24 23 23 27 33 33 29 26 27 28 25 25 22 25 20 20 20 19 27 30 45 46 50 51 50 48 51 51 50 48 42 47 40 45 32 24 21 25 17 19 10 6 6
24 25 26 31 32 33 29 28 28 29 27 27 23 28 27 23 27 27 30 25 49 49 53 48 50 51 51 53 52 52 45 48 44 46 32 25 19 22 22 20 22 6 3
27 26 29 37 36 31 31 29 28 29 27 28 25 26 29 31 30 33 28 17 42 50 57 56 50 51 54 53 51 49 44 44 46 45 34 25 19 20 19 20 32 19 5
27 26 23 35 35 35 32 28 29 30 29 29 28 30 29 31 31 30 35 26 40 52 55 52 49 50 51 52 51 44 42 42 42 43 39 25 21 20 20 17 29 16 9
26 25 24 31 35 33 30 28 27 28 28 31 30 32 30 31 30 33 34 24 45 51 52 52 49 50 50 50 49 41 44 41 40 42 42 29 23 21 20 19 26 19 10
27 26 20 31 29 28 28 26 25 25 29 30 30 34 27 33 24 24 36 35 44 49 51 50 48 49 50 51 47 44 46 42 41 43 44 34 26 21 20 20 24 22 12
28 22 22 20 23 26 26 24 24 25 29 29 28 29 31 25 23 35 35 45 46 46 45 50 48 47 47 50 47 50 49 46 45 45 46 41 31 25 21 21 22 23 16
25 24 21 20 24 26 25 23 24 25 28 31 28 31 32 32 37 36 32 43 49 48 46 46 47 47 46 45 46 48 46 45 45 44 45 46 39 30 24 23 24 24 19
30 26 22 21 19 23 23 20 20 25 30 30 31 32 31 37 31 26 38 42 45 47 46 46 44 44 44 43 44 47 47 46 41 41 43 45 41 33 28 25 26 26 22
31 28 26 24 22 20 22 18 19 22 30 29 32 31 31 31 28 30 41 40 42 43 44 42 44 43 41 45 51 48 44 45 44 43 42 41 38 32 27 23 23 27 27
31 29 27 23 19 25 22 18 15 22 28 31 32 32 28 26 33 35 37 37 38 42 41 39 41 42 43 46 50 47 42 46 45 43 43 41 39 33 27 24 22 26 21
31 28 24 22 30 27 21 15 12 12 27 30 30 29 31 30 36 35 36 33 35 40 40 38 40 39 39 46 50 48 42 39 43 45 44 44 41 36 30 27 26 27 20
28 25 34 32 29 21 12 9 6 10 26 26 26 26 28 31 35 38 38 37 34 29 35 40 38 38 36 46 49 47 38 37 37 41 43 45 44 38 32 31 32 26 20
40 35 39 29 24 25 13 2 14 22 26 25 23 27 32 34 34 36 34 34 36 32 30 34 39 41 42 49 49 46 36 35 34 35 39 44 45 41 34 34 35 29 23
44 45 42 33 36 38 17 5 15 20 27 31 28 28 29 29 31 33 32 33 34 28 30 30 31 35 43 51 53 51 42 40 39 38 39 41 42 39 35 32 32 29 26
43 51 36 34 31 26 6 20 17 23 26 28 29 29 30 30 33 35 34 29 36 26 25 25 25 29 35 43 48 49 44 43 44 39 41 44 42 38 35 32 29 24 23
40 44 41 39 40 49 38 21 15 26 29 28 26 30 30 28 30 32 27 33 27 25 23 24 23 24 30 36 42 40 37 41 37 42 43 44 41 40 34 30 27 25 26
38 43 41 37 38 47 40 31 17 29 32 26 25 31 33 31 28 31 26 34 26 23 23 22 21 23 25 29 32 31 30 34 35 38 37 41 40 38 36 31 28 28 27
43 41 40 38 41 43 38 31 20 28 30 28 28 28 29 31 25 21 28 30 26 32 30 27 31 30 26 32 39 38 36 35 37 40 40 39 36 33 35 34 31 30 26
38 42 40 40 40 39 34 41 32 21 28 23 24 25 29 27 24 23 29 21 23 25 28 29 30 26 29 36 39 39 38 39 43 39 37 31 32 36 36 33 31 28 27
Wind_Direction
331 329 324 322 322 323 321 324 323 321 327 324 326 330 321 308 299 307 162 167 165 163 164 159 156 157 154 154 155 149 146 134 139 121 110 105 112 113 114 120 123 131 132
333 329 328 326 320 317 319 317 314 310 314 308 300 299 299 303 291 291 194 168 164 164 164 162 160 158 152 153 157 155 140 140 146 140 125 107 89 112 127 136 137 144 142
333 328 328 327 324 317 315 314 311 310 295 287 288 277 291 292 296 300 283 162 164 165 167 165 162 160 160 159 158 160 154 153 154 152 146 134 167 127 138 153 159 153 155
331 323 320 319 320 315 311 308 303 295 284 292 280 284 260 282 288 286 315 158 162 163 166 166 165 163 162 161 163 163 160 159 158 170 168 154 145 146 155 171 166 166 167
326 321 317 312 312 312 307 302 298 289 280 270 251 245 253 231 279 298 314 156 162 163 164 167 166 164 165 165 165 165 168 169 167 176 165 147 149 143 146 153 165 167 171
324 318 314 311 307 308 304 298 294 284 279 271 258 243 244 228 268 299 314 158 162 163 163 166 169 168 166 166 169 170 173 172 176 179 178 165 169 166 151 133 158 163 175
322 318 315 311 308 308 303 295 290 284 276 263 261 252 257 239 255 276 276 184 163 164 164 165 166 166 170 172 172 175 173 176 180 184 184 184 182 176 158 146 150 147 163
321 317 312 309 304 303 297 293 283 277 267 256 245 242 239 218 243 261 267 260 168 163 161 167 169 170 170 174 177 179 179 184 192 190 186 186 188 188 176 166 155 130 134
319 311 307 304 304 298 294 286 277 269 261 255 243 233 233 209 222 244 266 287 168 164 164 168 170 171 174 176 177 177 182 187 196 194 188 189 188 189 193 192 174 147 153
311 308 305 303 299 298 290 280 270 261 256 251 239 229 227 212 218 248 256 270 180 166 166 167 168 169 173 175 178 179 183 187 194 195 189 189 188 187 193 194 192 183 150
309 307 305 300 300 294 287 277 264 254 246 240 233 226 227 208 215 240 260 275 176 165 165 164 167 168 172 176 178 179 185 187 190 194 191 190 189 186 189 192 195 192 172
307 309 301 305 300 295 288 274 260 247 238 233 227 223 229 208 207 244 257 196 170 166 163 164 168 171 173 176 177 180 188 188 189 194 192 191 189 191 191 193 196 197 190
312 309 310 307 304 297 287 276 259 242 230 225 219 222 224 195 214 228 247 176 165 164 166 164 168 171 174 177 179 187 190 193 196 197 195 196 194 191 191 196 196 195 197
312 316 313 310 307 300 290 275 255 234 223 216 208 217 203 190 215 229 227 171 164 162 167 166 170 174 175 176 178 186 189 193 196 199 198 199 200 199 199 198 195 192 192
321 320 317 314 308 300 294 275 250 251 212 207 207 215 182 199 214 228 162 166 163 165 168 167 172 174 174 176 178 187 189 191 192 198 199 202 203 207 210 204 194 191 190
320 320 318 315 310 303 295 279 269 208 194 199 208 197 178 193 210 172 160 159 161 164 166 169 170 171 177 183 188 188 188 192 194 195 201 203 203 203 207 211 207 198 189
321 321 319 314 307 303 291 271 264 194 184 195 209 174 176 195 164 157 157 158 162 162 165 169 171 174 180 185 190 190 187 192 196 197 196 197 197 198 200 204 202 193 198
324 323 319 317 314 305 284 263 241 190 185 207 173 162 182 155 153 146 152 154 161 164 168 172 174 174 180 186 188 190 191 190 196 200 197 195 192 195 196 192 187 189 194
323 322 324 319 310 301 292 235 197 195 198 184 156 173 175 151 152 157 156 163 163 169 173 172 172 176 181 189 186 184 186 187 192 198 196 194 191 192 193 185 180 181 186
328 333 336 334 338 342 338 317 194 224 166 163 170 169 156 156 156 147 155 159 167 168 171 171 177 179 182 187 185 182 179 177 183 193 193 195 191 187 188 187 182 178 180
330 343 345 353 351 346 333 259 226 172 160 164 154 147 150 157 149 146 156 166 156 162 166 172 174 178 183 183 188 187 181 180 179 184 188 192 192 186 187 190 188 188 177
341 344 351 350 348 345 300 195 122 135 144 135 134 138 141 136 139 147 155 155 142 154 157 158 164 175 185 190 192 190 196 194 184 182 185 189 189 192 183 184 186 182 172
341 346 351 353 355 7 13 37 43 106 108 113 118 125 133 136 142 137 144 123 138 150 152 156 155 157 171 180 183 184 185 186 181 185 188 184 183 188 178 180 180 176 170
347 348 349 1 359 3 6 18 62 116 116 111 116 126 128 130 134 134 134 132 143 144 146 144 142 149 160 168 175 178 175 171 175 174 174 172 171 175 170 169 174 176 176
344 352 351 354 359 2 6 13 54 114 111 112 114 108 113 118 114 120 137 145 162 169 161 161 159 152 157 169 175 174 165 166 164 152 153 160 163 154 159 168 171 176 176
347 347 353 353 355 359 5 16 36 82 106 92 92 101 103 110 115 110 107 144 154 166 175 178 177 170 172 172 175 176 177 176 167 153 150 150 155 162 167 169 173 172 180